Hourly Data Report for October 19, 2015

All times are specified in Local Standard Time (LST). Add 1 hour to adjust for Daylight Saving Time where and when it is observed.

EUREKA CLIMATE
NUNAVUT

79°59'21.000" N
85°56'02.000" W
10.00 m
2401199
71613
NEK

Download Data

Hourly Data (October 2015)
Hourly Data Report for October 19, 2015
Temp Definition
°C
Dew Point Temp Definition
°C
Rel Hum Definition
%
Wind Dir Definition
10's deg

Wind Spd Definition
km/h
Visibility Definition
km
Stn Press Definition
kPa
Hmdx Definition


Wind Chill Definition


Weather Definition


TIME
00:00 -14.8 -16.3 89 13 20   101.10   -24 LegendNANA
01:00 -14.7 -16.2 88 13 20   101.10   -24 LegendNANA
02:00 -14.8 -16.3 88 12 20   101.11   -24 LegendNANA
03:00 -14.8 -16.5 87 13 17   101.11   -23 LegendNANA
04:00 -15.0 -16.8 87 12 16   101.14   -23 LegendNANA
05:00 -15.3 -17.0 87 12 15   101.15   -23 LegendNANA
06:00 -15.5 -17.4 85 13 22   101.11   -25 LegendNANA
07:00 -15.5 -17.4 85 12 23   101.08   -25 LegendNANA
08:00 -15.3 -17.4 84 14 21   101.09   -25 LegendNANA
09:00 -15.6 -17.5 86 11 20   101.05   -25 LegendNANA
10:00 -15.3 -17.3 85 12 21   101.03   -25 LegendNANA
11:00 -15.4 -17.2 86 12 22   101.02   -25 LegendNANA
12:00 -15.3 -17.3 85 12 26   100.97   -26 LegendNANA
13:00 -15.4 -17.4 84 12 23   100.95   -25 LegendNANA
14:00 -15.5 -17.4 85 12 20   100.91   -25 LegendNANA
15:00 -15.3 -17.2 85 13 21   100.87   -25 LegendNANA
16:00 -15.5 -17.5 85 12 30   100.80   -27 LegendNANA
17:00 -15.2 -17.5 83 13 24   100.77   -25 LegendNANA
18:00 -15.3 -17.4 84 15 22   100.75   -25 LegendNANA
19:00 -15.1 -17.1 85 13 21   100.70   -25 LegendNANA
20:00 -14.8 -16.5 87 15 29   100.62   -26 LegendNANA
21:00 -15.1 -16.3 90 13 30   100.57   -26 LegendNANA
22:00 -14.8 -16.1 90 15 25   100.52   -25 LegendNANA
23:00 -14.5 -15.7 91 17 33   100.46   -26 LegendNANA

Notes on Data Quality.

Legend

  • E = Estimated
  • M = Missing
  • NA = Not Available
  • ‡ = Partner data that is not subject to review by the National Climate Archives
Date modified: